User: anonymous   Login
Location: Byszew
(52.1813°N, 19.2693°E)
Time: 14:35:11
(UTC+00:00)
Language:

Cosmos 1777 Rocket - Orbit

View from above orbital plane
View from above orbital plane
View from above satellite
View from above satellite

Ground track
Ground track

The orbit data is extracted from the following two-line orbital elements,

1 16953U 86070B   21131.58131033 -.00000024  00000-0  67559-6 0  9992
2 16953  74.0099 171.6740 0011323  48.6722 311.5404 14.37423738816487
Epoch (UTC): 11 May 2021 13:57:05
Eccentricity: 0.0011323
inclination: 74.0099°
perigee height: 759 km
apogee height: 775 km
right ascension of ascending node: 171.6740°
argument of perigee: 48.6722°
revolutions per day: 14.37423738
mean anomaly at epoch: 311.5404°
orbit number at epoch: 81648

The dashed part of the orbit path shows where the satellite is in the earth's shadow,  

DLR